Rbgn^[z[y[W
メイン
   新天体発見情報
     Comet P/2021 V2 (Fuls)
投稿するにはまず登録を

スレッド表示 | 新しいものから 前のトピック | 次のトピック | 下へ
投稿者 スレッド
佐藤裕久
投稿日時: 2021-11-20 20:41
モデレータ
登録日: 2005-6-12
居住地: 日本
投稿: 2277
オンライン
Comet P/2021 V2 (Fuls)

David Carson Fuls (月惑星研究所:LPL, アリゾナ大学)の通報によると、11月7日、Mt Lemmon
の1.5-m 反射望遠鏡で得たCCD画像から彗星を発見した。 Fulsは、非常に集光した6"のコマ
とp.a. 270°に8"の尾があると注記した。
R. Weryk (西オンタリオ大学,物理および天文学科)は、Fulsが撮影した1時間後Haleakalaに
あるPan-STARRS2の1.8-m Ritchey-Chretien 反射望遠鏡で得た画像から独立してこの彗星を
発見した(しかし、Mt Lemmonの観測結果が小惑星センターのwebpageに公表された後だった)。
Werykによると、11月7.35-7.38日UTに得た45秒w-バンドサーベイ画像では、1".1のシーイング
で1".5(半値全幅:FWHM)の非常に集光したコマが見え、光度20.0-20.1等で、p.a. 280°にハッ
キリとした尾がある。
佐藤英貴氏(東京都文京区, 11月8.21日, 60秒露出16枚のスタック,0.43-m f/6.8 アストログ
ラフ, Mayhill近郊, ニューメキシコ州, 米国, 遠隔操作: 強く集光した8" のコマが見えるが
尾はない。5".7の円形範囲で測定した光度は19.5等であった)らCCD位置観測者によって彗星状
と観測された。

彗星機能の報告は次のとおり、

OC   Date        Reporter           Coma    Tail    PA          Exposures
F51  2021-10-28  R. Weryk           0".3     3"    280            4x45s
F52  2021-10-31  R. Weryk           0".5     5"    280            4x45s
F52  2021-11-07  R. Weryk           0".4     5"    280            4x45s
H06  2021-11-08  H. Sato            8"                           16x60s

発見位置は次のとおり、

     2021 UT             R.A. (2000) Decl.       Mag.   Observer
     Nov.  7.30330    4 25 21.10   +18 39 45.3   19.7   Fuls
           7.30843    4 25 20.97   +18 39 44.2   19.7     "
           7.31356    4 25 20.82   +18 39 43.5   19.5     "
           7.31868    4 25 20.69   +18 39 42.6   19.7     "
           7.39590    4 25 18.58   +18 39 28.0   19.5     "
           7.40660    4 25 18.30   +18 39 26.0   19.6     "
           7.41736    4 25 18.00   +18 39 24.0   19.5     "
           7.42831    4 25 17.70   +18 39 21.7   19.4     "

MPCの楕円軌道要素、位置推算表は次のとおり

Orbital elements:
    P/2021 V2 (Fuls)                                                            
Epoch 2023 Jan. 16.0 TT = JDT 2459960.5                                         
T 2023 Jan. 21.41302 TT                                 Rudenko                 
q   3.4960083            (2000.0)            P               Q                  
n   0.03617561     Peri.  259.84097     -0.65170967     -0.73828149             
a   9.0543811      Node   232.28330     +0.75302269     -0.60239543             
e   0.6138877      Incl.   12.69377     +0.09072669     -0.30341422             
P  27.2                                                                         
From 34 observations 2021 Aug. 7-Nov. 8, mean residual 0".1.                    
                                                                                
    P/2021 V2 (Fuls)                                                            
Epoch 2050 July 13.0 TT = JDT 2470000.5                                         
T 2050 June 25.33596 TT                                 Rudenko                 
q   3.5291855            (2000.0)            P               Q                  
n   0.03453837     Peri.  259.28600     -0.64032629     -0.74853114             
a   9.3383068      Node   231.94328     +0.76207143     -0.59105557             
e   0.6220744      Incl.   12.63896     +0.09606969     -0.30059015             
P  28.5                                                                         
From 34 observations 2021 Aug. 7-Nov. 8, mean residual 0".1.                    
                                                                                
    P/2021 V2 (Fuls)                                                            
Epoch 2022 Jan. 21.0 TT = JDT 2459600.5                                         
T 2023 Jan. 21.55768 TT                                 Rudenko                 
q   3.4958567            (2000.0)            P               Q                  
n   0.03627008     Peri.  259.85321     -0.65197629     -0.73803509             
a   9.0386529      Node   232.29233     +0.75280827     -0.60266146             
e   0.6132326      Incl.   12.69565     +0.09059037     -0.30348536             
P  27.2                                                                         
From 34 observations 2021 Aug. 7-Nov. 8, mean residual 0".1.                    
                                                                                
Ephemeris:
Date    TT    R. A. (2000) Decl.     Delta      r    Elong.  Phase   m1
2021 10 09    04 32 59.0 +19 57 22   4.0912  4.7477   126.0     9.8  19.8
...
2021 10 24    04 30 29.0 +19 21 30   3.8650  4.6846   141.5     7.6  19.6
...
2021 11 01    04 27 54.6 +18 58 57   3.7643  4.6512   150.1     6.1  19.6
...
2021 11 07    04 25 29.0 +18 40 43   3.6995  4.6262   156.7     4.9  19.5
2021 11 08    04 25 02.6 +18 37 35   3.6897  4.6221   157.8     4.7  19.5
2021 11 09    04 24 35.6 +18 34 26   3.6801  4.6179   158.9     4.4  19.5
...
2021 11 15    04 21 43.1 +18 15 03   3.6288  4.5931   165.5     3.1  19.4
...
2021 11 23    04 17 31.5 +17 48 28   3.5771  4.5603   173.9     1.3  19.4
...
2021 12 08    04 09 18.0 +16 58 52   3.5334  4.4992   167.1     2.8  19.3

(MPEC 2021-V169、CBET 5068)

スレッド表示 | 新しいものから 前のトピック | 次のトピック | トップ

投稿するにはまず登録を
 
© 1999 Tsutomu Seki.